Regional Weather Roundup
Issued by NWS

Home | Current Version | Previous Version | Text Only | Print | Product List | Glossary On
Versions: 1 2 3 4 5 6 7 8 9 10 11 12 13 14 15 16 17 18 19 20 21 22 23 24 25 26 27 28 29 30 31 32 33 34 35 36 37 38 39 40 41 42 43 44 45 46 47 48 49 50
000
ASUS43 KDMX 261607
RWRIA

WEATHER ROUNDUP FOR IOWA
NATIONAL WEATHER SERVICE DES MOINES IA
1100 AM CDT TUE MAY 26 2015

NOTE: "FAIR" INDICATES FEW OR NO CLOUDS BELOW 12,000 FEET WITH NO
SIGNIFICANT WEATHER AND/OR OBSTRUCTIONS TO VISIBILITY.

* - THESE STATIONS ARE NOT NWS STATIONS...THUS NOT UNDER NWS
QUALITY CONTROL.  THEY ALSO DO NOT REPORT WEATHER SUCH
AS PRECIPITATION OR FOG.

IAZ001>003-012>014-020>022-031>034-043>046-261700-
   NORTHWEST IOWA

CITY           SKY/WX    TMP DP  RH WIND       PRES   REMARKS
CARROLL *      LGT RAIN  61  61 100 W5        29.78S
CHEROKEE *     LGT RAIN  61  61 100 N7        29.77S
DENISON *      LGT RAIN  63  63 100 VRB5      29.77S
LE MARS *      CLOUDY    59  57  94 N10       29.81R
ORANGE CITY *  CLOUDY    57  55  94 N9        29.80R
SHELDON *      CLOUDY    59 N/A N/A N12       29.79R
SIOUX CITY     CLOUDY    62  58  86 N10       29.79R FOG
SPENCER        LGT RAIN  59  57  93 N10       29.78F
STORM LAKE *   SUNNY     61  59  94 CALM      29.79R FOG
$$

IAZ055>058-069>071-079>083-090>094-261700-
   SOUTHWEST IOWA

CITY           SKY/WX    TMP DP  RH WIND       PRES   REMARKS
ATLANTIC *     CLOUDY    63  61  94 S8G14     29.79S
AUDUBON *      RAIN      63  59  88 S5        29.81R
COUNCIL BLFS * CLOUDY    64  64 100 S6        29.78F
CRESTON *      CLOUDY    63  63 100 SW7       29.81S
HARLAN  *      CLOUDY    63  63 100 SW5       29.82S
LAMONI         CLOUDY    66  61  84 SW9       29.82R
RED OAK *      CLOUDY    64  61  88 SW7       29.79F
SHENANDOAH *   CLOUDY    66  61  82 S10       29.80S
$$

IAZ047>049-059>061-072>074-084-261700-
   CENTRAL IOWA

CITY           SKY/WX    TMP DP  RH WIND       PRES   REMARKS
AMES           LGT RAIN  61  57  87 CALM      29.78R FOG
ANKENY *       LGT RAIN  63  61  94 NW3       29.79R
CHARITON *     LGT RAIN  63  61  94 NW8       29.80R
DES MOINES     LGT RAIN  63  59  87 CALM      29.79R
GRINNELL*      LGT RAIN  61  59  94 W7        29.75R
KNOXVILLE *    LGT RAIN  63  59  88 NW13      29.77R
MARSHALLTOWN   CLOUDY    62  59  90 NW12      29.74R
PELLA *        DRIZZLE   63  63 100 NW7       29.79R
PERRY *        CLOUDY    61  59  94 SW9       29.80R FOG
$$

IAZ004>006-015-016-023>025-035-036-261700-
   NORTH CENTRAL IOWA

CITY           SKY/WX    TMP DP  RH WIND       PRES   REMARKS
ALGONA *       HVY RAIN  61  61 100 NW6       29.78S
CLARION *      CLOUDY    63 N/A N/A NW6       29.77R
ESTHERVILLE    LGT RAIN  57  56  96 NE9       29.78F FOG
FORT DODGE *   CLOUDY    61  57  88 CALM      29.79R
MASON CITY     LGT RAIN  62  60  93 NW10      29.76F
FOREST CITY *  DRIZZLE   59  59 100 NW6       29.76F
IOWA FALLS *   DRIZZLE   61  59  94 NW12      29.77R
$$

IAZ007>011-017>019-026>030-037>042-050>054-066-261700-
   NORTHEAST IOWA

CITY           SKY/WX    TMP DP  RH WIND       PRES   REMARKS
CEDAR RAPIDS   CLOUDY    68  65  90 S14       29.69F
CHARLES CITY * LGT RAIN  61  61 100 N12       29.76F
CLINTON *      CLOUDY    64  63  94 SW10      29.77F
DECORAH *      LGT RAIN  59  59 100 NE6G17    29.74F
DUBUQUE        RAIN      65  64  97 S15       29.72F FOG
MONTICELLO *   CLOUDY    66  66 100 S9        29.72F
OELWEIN *      LGT RAIN  61  61 100 NE13      29.72S
WATERLOO       LGT RAIN  62  60  93 N9        29.72F
$$

IAZ064-065-067-068-078-261700-
   EAST CENTRAL IOWA

CITY           SKY/WX    TMP DP  RH WIND       PRES   REMARKS
DAVENPORT      CLOUDY    67  63  87 S12       29.75F
IOWA CITY      CLOUDY    68  65  90 SE12      29.72F
MT. PLEASANT * SUNNY     72  64  78 S18G30    29.73S
MUSCATINE *    CLOUDY    70  64  83 S14G21    29.73F
QUAD CITIES    CLOUDY    70  65  84 S13       29.74S
$$

IAZ062-063-075>077-085>089-095>099-261700-
   SOUTHEAST IOWA

CITY           SKY/WX    TMP DP  RH WIND       PRES   REMARKS
BURLINGTON     CLOUDY    70  64  81 SW18G29   29.75F
FAIRFIELD *    PTSUNNY   68  63  83 SW20      29.73R
FORT MADISON * CLOUDY    70  64  83 SW13G20   29.77S
KEOKUK *       CLOUDY    70  63  78 SW20G29   29.77R
OSKALOOSA *    DRIZZLE   63  61  94 W16       29.76R
CENTERVILLE *  RAIN      64  64 100 SW9       29.82R
OTTUMWA        LGT RAIN  64  63  96 W17       29.74R
WASHINGTON *   CLOUDY    72  64  78 S17G24    29.72F
$$

ABBREVIATIONS USED IN REMARKS
   TC - TEMPERATURES IN CELSIUS
  WCI - WIND CHILL INDEX
   HX - HEAT INDEX
  VSB - VISIBILITY
$$




USA.gov is the U.S. government's official web portal to all federal, state and local government web resources and services.